This is the latest recevied weather packets stored in our database for station/object W1GK. If no packets are shown the sender has not sent any weather packets the latest 10 day(s).
| Time | Temp. | Humidity | Pressure | Rain* | Wind** | Luminosity | Snow |
|---|---|---|---|---|---|---|---|
| 1777455599 | 14.44° C | 22% | 1016.3 hPa | 0 mm | - | 0 W/m² | - |
| 1777454998 | 15° C | 22% | 1016.4 hPa | 0 mm | - | 0 W/m² | - |
| 1777454399 | 15.56° C | 22% | 1016.3 hPa | 0 mm | - | 0 W/m² | - |
| 1777453798 | 15.56° C | 21% | 1016.2 hPa | 0 mm | - | 0 W/m² | - |
| 1777453199 | 16.11° C | 21% | 1016.2 hPa | 0 mm | - | 0 W/m² | - |
| 1777452598 | 16.67° C | 20% | 1016.3 hPa | 0 mm | - | 0 W/m² | - |
| 1777451996 | 16.11° C | 21% | 1016.3 hPa | 0 mm | - | 0 W/m² | - |
| 1777451399 | 16.11° C | 21% | 1016.4 hPa | 0 mm | - | 0 W/m² | - |
| 1777450799 | 16.67° C | 21% | 1016.4 hPa | 0 mm | - | 0 W/m² | - |
| 1777450197 | 16.67° C | 21% | 1016.5 hPa | 0 mm | - | 0 W/m² | - |
| 1777449600 | 16.67° C | 21% | 1016.5 hPa | 0 mm | - | 0 W/m² | - |
| 1777449001 | 17.22° C | 21% | 1016.7 hPa | 0 mm | - | 0 W/m² | - |
| 1777448402 | 17.22° C | 21% | 1016.7 hPa | 0 mm | - | 0 W/m² | - |
| 1777447800 | 17.22° C | 21% | 1016.6 hPa | 0 mm | - | 0 W/m² | - |
| 1777447199 | 17.22° C | 22% | 1016.4 hPa | 0 mm | - | 0 W/m² | - |
| 1777446598 | 17.78° C | 22% | 1016.4 hPa | 0 mm | - | 0 W/m² | - |
| 1777445998 | 17.78° C | 23% | 1016.4 hPa | 0 mm | - | 0 W/m² | - |
| 1777445399 | 17.78° C | 22% | 1016.3 hPa | 0 mm | - | 0 W/m² | - |
| 1777444798 | 18.33° C | 22% | 1016.3 hPa | 0 mm | - | 0 W/m² | - |
| 1777444199 | 18.33° C | 22% | 1016.1 hPa | 0 mm | - | 0 W/m² | - |
| 1777443598 | 18.33° C | 22% | 1016.1 hPa | 0 mm | - | 0 W/m² | - |
| 1777442998 | 18.89° C | 22% | 1016 hPa | 0 mm | - | 0 W/m² | - |
| 1777442399 | 18.89° C | 22% | 1015.9 hPa | 0 mm | - | 0 W/m² | - |
| 1777441798 | 18.89° C | 22% | 1016 hPa | 0 mm | - | 0 W/m² | - |
| 1777441199 | 18.89° C | 22% | 1015.9 hPa | 0 mm | - | 0 W/m² | - |
* Rain latest hour (hover to see other rain measurements)
** Current wind speed in m/s (hover to see current wind gust speed)